DEMO9 (AURORA) (48956 NORAD) Tracking and Keplerian Element Data

This shows tracking and keplerian element data for the satellite.

Feedback or suggestion? Click here.




ElementValue
Catalog48956
NameDEMO9 (AURORA)
Epoch Orbit516
Epoch Day210.93716936
Epoch Year2021
RAAN339.3281
Inclination97.5155
Eccentricity0.0018816
Argument of Perigee131.9472
Mean Anonmoly228.3367
Mean Motion15.13906972
Decay Rate9.15E-06
L11 48956U 21059CF 21210.93716936 .00000915 00000-0 54000-4 0 9997
L22 48956 97.5155 339.3281 0018816 131.9472 228.3367 15.13906972 5162

Live tracking and technical data element details for DEMO9 (AURORA) (NORAD 48956). DEMO9 (AURORA) can be tracked NOW for your location showing map with azimuth and elevation plus other details from your city location.

Track the satellite on the map from your city or location and see movement details for azimuth, elevation, latitude, longitude, range, height, and movement on the map or in text.







IsCatalogInMostPopularTable: catalog: 48956, numindb: 1
Update: records affected: 1



GetName: 48956 DEMO9 (AURORA)

Hit Count: updated at: Sat, 31 Jul 2021 14:33:58 GMT